Terminal Aerodrome Forecast
Issued by NWS Memphis, TN

Home | Current Version | Previous Version | Text Only | Print | Product List | Glossary On
Versions: 1 2 3 4 5 6 7 8 9 10 11 12 13 14 15 16 17 18 19 20 21 22 23 24 25 26 27 28 29 30 31 32 33 34 35 36 37
000
FTUS44 KMEG 292335
TAFMEM
TAF
KMEM 292335Z 3000/3024 31005KT P6SM -TSRA SCT020 BKN035CB BKN100
     FM300100 23005KT P6SM VCTS SCT030CB BKN100
     FM300400 21003KT P6SM SCT050 SCT150
      TEMPO 3009/3013 4SM BR
     FM301300 20005KT P6SM SCT015 SCT040
     FM301700 25007KT P6SM VCTS BKN040CB
      TEMPO 3019/3023 3SM TSRA BKN025CB=

USA.gov is the U.S. government's official web portal to all federal, state and local government web resources and services.